GFSFLT2_250_spd_012.txt.gz
Wind_Speed
99 101 103 106 110 113 116 119 120 117 107 110 112 117 120 122 123 121 117 113 109 104 99 94 93 92 93
101 105 109 113 115 118 121 119 111 111 116 118 119 119 117 111 106 104 101 98 94 90 87 85 84 83 85
104 110 115 119 120 120 115 111 118 118 121 122 118 109 103 97 96 94 90 87 85 82 79 77 76 77 79
110 115 120 122 118 111 115 121 126 122 116 109 103 99 92 88 87 85 82 78 75 72 68 67 65 65 68
117 120 121 117 111 119 124 125 125 107 101 100 92 87 83 81 77 73 70 66 63 61 59 57 57 58 60
118 118 112 116 120 125 126 119 111 95 85 88 80 78 73 69 66 62 58 57 55 53 52 52 53 54 55
108 110 117 123 125 125 116 108 97 84 75 83 69 65 62 60 59 55 52 50 49 48 49 50 52 53 52
114 119 123 122 117 108 100 94 91 79 62 72 64 57 55 53 53 50 50 48 46 46 47 49 50 50 51
122 123 120 110 98 90 87 81 79 75 55 58 57 52 51 47 48 47 48 45 44 43 45 46 45 45 46
125 116 104 95 86 80 74 70 66 68 53 52 48 44 47 42 42 45 45 42 42 42 42 41 41 41 41
110 100 92 85 80 74 66 59 57 58 53 48 45 42 49 48 36 40 43 38 37 40 40 38 39 39 39
95 87 83 77 71 65 59 53 48 51 53 48 51 45 44 44 41 30 36 36 37 37 36 34 35 37 36
85 81 73 66 64 62 57 53 48 45 50 51 48 44 41 39 34 30 32 30 34 34 35 30 30 30 31
78 71 66 66 65 63 59 51 43 35 38 39 36 34 28 32 31 27 29 27 26 28 30 27 30 30 29
66 65 66 66 62 56 48 41 35 29 28 29 24 22 24 23 26 27 26 23 25 22 21 20 22 26 27
62 63 61 58 52 45 38 32 26 23 20 20 17 17 19 20 20 21 25 21 19 19 20 21 19 21 21
61 57 56 49 41 37 31 25 20 18 15 13 13 13 16 19 18 14 14 17 17 18 19 17 16 16 19

GFSFLT2_250_spd_015.txt.gz
Wind_Speed
92 96 99 103 106 107 108 109 110 111 112 115 118 121 124 120 114 118 120 122 123 122 120 118 115 115 115
91 95 97 99 100 101 104 107 109 114 116 121 124 122 112 117 121 122 122 121 117 112 104 101 98 96 96
91 94 97 99 97 100 104 109 115 119 122 122 114 118 120 120 118 116 111 108 102 96 93 88 86 84 84
91 94 94 97 100 104 111 117 123 121 113 117 117 118 117 109 105 101 97 94 88 86 84 80 77 76 75
91 95 100 105 109 113 116 114 113 116 116 120 112 111 104 96 93 90 88 85 80 76 72 70 68 67 67
96 101 108 111 113 106 106 112 118 121 111 107 98 99 91 86 83 80 77 73 68 66 63 61 60 59 59
104 108 108 100 102 107 112 115 113 104 92 92 92 88 81 77 68 66 66 60 57 57 55 53 53 52 54
106 101 102 105 108 109 108 103 99 94 80 81 83 78 71 64 56 57 56 49 46 46 47 49 50 49 49
103 106 110 108 105 100 95 90 86 86 72 68 69 64 65 57 47 46 46 42 43 42 43 44 46 46 46
111 112 106 101 94 88 81 79 73 72 64 64 60 55 62 49 40 38 44 44 45 41 41 43 44 44 44
113 107 99 91 86 80 71 66 65 64 60 57 59 54 52 52 35 39 45 47 45 38 38 39 40 39 41
101 93 88 81 76 71 66 64 56 54 56 51 49 47 46 46 40 37 41 45 42 36 36 37 36 34 38
89 81 77 71 66 68 64 59 53 46 48 45 39 36 36 36 33 31 34 33 37 37 34 33 30 31 35
77 73 68 64 64 63 62 55 47 41 39 35 31 30 29 28 27 26 28 28 32 32 32 28 25 30 32
68 64 61 62 59 58 52 45 42 38 33 30 27 25 23 23 24 22 24 24 22 25 26 25 24 32 33
59 56 58 56 56 49 42 38 34 31 28 25 21 17 15 15 16 16 17 16 19 21 23 27 25 30 33
52 55 52 52 47 40 36 33 29 25 20 16 13 12 11 11 13 14 17 18 18 20 21 21 21 21 25

GFSFLT2_250_spd_021.txt.gz
Wind_Speed
84 87 89 90 89 86 82 80 81 82 82 83 83 83 84 85 87 89 92 96 100 102 104 105 106 108 107
88 85 82 79 76 77 81 84 83 85 86 87 89 90 92 94 96 100 102 104 104 105 107 108 110 112 113
74 75 78 81 81 84 86 88 91 92 94 94 94 94 97 98 102 107 110 111 112 115 118 120 121 122 120
80 82 84 86 87 89 93 95 93 94 93 93 96 99 103 104 107 110 109 109 109 112 114 115 117 116 115
87 90 90 92 94 93 89 90 94 98 100 105 103 105 108 107 108 107 105 102 101 102 104 106 106 105 103
94 94 94 93 90 92 95 97 100 106 105 109 106 105 104 102 100 95 90 86 83 84 88 91 92 88 86
96 93 91 95 97 99 102 103 107 106 104 105 96 98 96 94 91 83 78 72 71 74 77 79 81 77 74
95 98 100 103 104 104 104 104 106 103 97 91 91 88 85 86 84 76 68 68 70 70 70 70 68 66 64
104 106 108 109 107 105 103 101 96 95 90 83 84 76 76 77 74 68 68 67 68 67 63 61 59 57 56
112 112 111 110 106 100 95 92 88 83 80 77 76 67 72 73 70 65 59 54 55 53 51 50 47 46 49
115 114 112 106 98 91 86 82 77 72 71 66 68 66 64 63 60 56 52 48 44 41 38 36 35 38 43
112 109 102 94 88 84 77 71 68 61 65 60 61 58 54 51 50 46 45 40 36 33 29 28 28 34 39
95 90 86 81 75 72 69 65 59 55 55 56 51 50 46 45 43 41 40 36 33 29 26 24 25 31 36
82 77 73 68 64 62 60 57 57 50 48 47 45 40 41 37 37 38 36 34 29 26 24 23 24 28 32
68 64 62 59 54 52 53 53 50 51 44 37 36 36 34 36 35 35 31 32 31 26 23 21 22 25 28
56 54 50 48 48 50 47 46 46 41 39 37 34 29 30 30 33 25 29 24 22 24 22 17 20 23 24
44 43 42 45 47 44 42 40 36 33 35 36 35 33 31 25 20 28 16 18 26 28 22 20 18 24 26

GFSFLT2_250_spd_027.txt.gz
Wind_Speed
87 90 89 93 92 91 87 84 78 79 83 84 84 83 84 83 82 85 85 83 79 80 83 85 87 89 93
89 94 97 96 95 94 84 79 84 89 89 88 87 87 87 85 85 85 85 86 87 88 89 93 97 100 103
88 92 94 99 93 82 84 89 91 94 92 90 89 87 85 85 90 94 95 94 95 96 98 101 105 110 112
91 96 98 94 88 85 86 92 98 100 94 92 93 94 94 95 99 100 100 98 96 96 99 103 105 107 106
95 96 89 85 88 89 90 93 98 100 98 101 104 106 105 107 106 102 95 90 89 92 92 92 92 90 89
95 90 91 91 92 95 92 94 97 106 107 112 113 116 117 112 102 91 83 82 85 84 82 82 81 80 79
89 94 94 96 98 101 105 106 109 114 112 116 120 122 112 102 91 85 84 80 79 77 74 72 72 71 71
91 94 94 95 99 103 107 110 115 121 115 115 114 109 100 95 83 79 75 72 70 68 66 63 64 64 64
93 94 96 101 105 109 113 116 120 118 102 101 99 92 88 81 73 70 68 64 61 60 58 58 59 59 59
96 99 103 108 110 114 115 115 106 98 89 85 83 75 77 71 64 59 56 58 59 56 53 51 51 51 50
103 107 108 111 113 112 103 97 90 83 76 74 73 67 63 65 55 55 57 53 51 50 47 43 45 46 46
107 111 111 110 104 96 89 82 76 70 66 63 61 58 59 60 63 57 53 50 45 46 40 35 38 40 40
110 109 102 95 89 81 74 70 61 56 57 57 57 57 56 55 56 54 48 45 30 35 40 30 32 32 32
100 91 87 79 74 68 61 57 54 51 54 54 53 53 51 46 45 48 46 42 32 29 35 24 29 30 27
84 77 71 64 56 54 54 53 53 53 50 49 48 44 40 35 41 39 42 40 36 34 32 28 28 29 22
70 64 57 50 50 51 52 52 52 48 48 47 42 37 31 28 33 33 34 35 35 34 34 31 27 25 21
59 52 46 49 50 49 50 49 46 44 41 40 36 32 31 27 31 29 28 28 26 25 27 25 25 23 20